Atkins, VA

1:13 AM EDT on August 25, 2016 (GMT -0400)
Mountain Empire

Weather History for KMKJ - January, 2012

Change the Weather History Date:

Friday, January 27, 2012

  Actual Average (KGEV) Record (KGEV)
Temperature  
Mean Temperature 50 °F -  
Max Temperature 62 °F 42 °F 68 °F (1999)
Min Temperature 37 °F 19 °F -15 °F (1987)
Degree Days  
Heating Degree Days 14    
Moisture  
Dew Point 42 °F    
Average Humidity 78    
Maximum Humidity 94    
Minimum Humidity 66    
Precipitation  
Precipitation 0.29 in - - ()
Sea Level Pressure  
Sea Level Pressure 29.79 in    
Wind  
Wind Speed 17 mph (West)    
Max Wind Speed 29 mph    
Max Gust Speed 41 mph    
Visibility 10 miles    
Events Rain    
Averages and records for this station are not official NWS values.
T = Trace of Precipitation, MM = Missing Value Source: NWS Daily Summary

Daily Weather History Graph

Daily Weather History Graph

Search for Another Location

Airport or City:

Trip Planner

Search our weather history database for the weather conditions in past years. The results will help you decide how hot, cold, wet, or windy it might be!

Date:

Astronomy

Jan. 27, 2012 Rise Set
Actual Time 7:31 AM EST 5:44 PM EST
Civil Twilight 7:04 AM EST 6:12 PM EST
Nautical Twilight 6:32 AM EST 6:43 PM EST
Astronomical Twilight 6:02 AM EST 7:14 PM EST
Moon 9:34 AM EST (1/27) 10:25 PM EST (1/27)
Length of Visible Light 11h 08m
Length of Day
10h 12m
Waxing Crescent, 19% of the Moon is Illuminated
Jan 27
Waxing Crescent
Jan 30
First Quarter
Feb 7
Full
Feb 14
Last Quarter
Feb 21
New

Hourly Weather History & Observations

Time (EST) Temp. Windchill Dew Point Humidity Pressure Visibility Wind Dir Wind Speed Gust Speed Precip Events Conditions
12:15 AM 62.6 °F - 53.6 °F 72% 29.65 in 10.0 mi SSW 12.7 mph 23.0 mph N/A Rain Light Rain
12:35 AM 60.8 °F - 53.6 °F 77% 29.64 in 10.0 mi South 12.7 mph 21.9 mph N/A   Light Drizzle
12:55 AM 62.6 °F - 53.6 °F 72% 29.61 in 10.0 mi South 17.3 mph 26.5 mph N/A   Mostly Cloudy
1:35 AM 62.6 °F - 53.6 °F 72% 29.59 in 10.0 mi South 21.9 mph 27.6 mph N/A   Mostly Cloudy
1:55 AM 62.6 °F - 51.8 °F 68% 29.59 in 10.0 mi South 16.1 mph 25.3 mph N/A   Overcast
2:35 AM 62.6 °F - 51.8 °F 68% 29.58 in 10.0 mi South 11.5 mph 18.4 mph N/A   Mostly Cloudy
2:55 AM 60.8 °F - 51.8 °F 72% 29.60 in 10.0 mi WSW 28.8 mph 41.4 mph N/A Rain Rain
3:15 AM 55.4 °F - 51.8 °F 88% 29.61 in 10.0 mi WSW 13.8 mph 24.2 mph N/A   Overcast
3:35 AM 55.4 °F - 51.8 °F 88% 29.61 in 7.0 mi WSW 10.4 mph 20.7 mph 0.03 in Rain Rain
3:55 AM 55.4 °F - 51.8 °F 88% 29.61 in 7.0 mi WSW 13.8 mph 19.6 mph 0.07 in Rain Light Rain
4:15 AM 53.6 °F - 51.8 °F 94% 29.63 in 7.0 mi WSW 21.9 mph 29.9 mph 0.05 in Rain Rain
4:35 AM 53.6 °F - 51.8 °F 94% 29.63 in 10.0 mi WSW 20.7 mph 29.9 mph 0.08 in Rain Light Rain
4:55 AM 53.6 °F - 50.0 °F 88% 29.63 in 10.0 mi WSW 17.3 mph 28.8 mph 0.13 in Rain Light Rain
5:15 AM 51.8 °F - 50.0 °F 94% 29.63 in 10.0 mi WSW 18.4 mph 24.2 mph N/A   Light Drizzle
5:35 AM 51.8 °F - 48.2 °F 88% 29.65 in 10.0 mi WSW 15.0 mph 23.0 mph N/A   Light Drizzle
5:55 AM 50.0 °F - 48.2 °F 94% 29.65 in 10.0 mi West 17.3 mph 21.9 mph 0.01 in Rain Light Rain
6:15 AM 50.0 °F - 48.2 °F 94% 29.65 in 7.0 mi West 20.7 mph - 0.01 in Rain Light Rain
6:35 AM 50.0 °F - 48.2 °F 94% 29.66 in 10.0 mi West 17.3 mph 23.0 mph 0.02 in Rain Light Rain
6:55 AM 50.0 °F - 48.2 °F 94% 29.67 in 7.0 mi WSW 18.4 mph 23.0 mph 0.03 in   Drizzle
7:15 AM 50.0 °F - 48.2 °F 94% 29.67 in 10.0 mi WSW 18.4 mph 24.2 mph N/A   Light Drizzle
7:35 AM 50.0 °F - 48.2 °F 94% 29.68 in 10.0 mi WSW 18.4 mph - N/A   Overcast
7:55 AM 50.0 °F - 48.2 °F 94% 29.68 in 10.0 mi West 20.7 mph 26.5 mph N/A   Overcast
8:15 AM 50.0 °F - 48.2 °F 94% 29.69 in 10.0 mi West 17.3 mph - N/A   Overcast
8:35 AM 50.0 °F - 46.4 °F 87% 29.70 in 4.0 mi West 21.9 mph 25.3 mph 0.03 in Rain Rain
8:55 AM 50.0 °F - 44.6 °F 82% 29.70 in 5.0 mi West 21.9 mph 28.8 mph 0.05 in Rain Light Rain
9:15 AM 48.2 °F - 42.8 °F 82% 29.72 in 10.0 mi West 16.1 mph 27.6 mph N/A   Overcast
9:35 AM 48.2 °F - 42.8 °F 82% 29.73 in 10.0 mi West 18.4 mph 27.6 mph N/A Rain Light Rain
9:55 AM 46.4 °F 38.5 °F 41.0 °F 81% 29.75 in 10.0 mi West 21.9 mph 28.8 mph N/A   Overcast
10:15 AM 46.4 °F 39.8 °F 41.0 °F 81% 29.76 in 10.0 mi West 16.1 mph 32.2 mph N/A   Overcast
10:35 AM 48.2 °F - 41.0 °F 76% 29.77 in 10.0 mi West 18.4 mph 26.5 mph N/A   Overcast
10:55 AM 48.2 °F - 41.0 °F 76% 29.79 in 10.0 mi West 20.7 mph 31.1 mph N/A   Overcast
11:15 AM 46.4 °F 39.0 °F 39.2 °F 76% 29.80 in 10.0 mi West 19.6 mph 31.1 mph N/A   Overcast
11:35 AM 46.4 °F 39.5 °F 39.2 °F 76% 29.81 in 10.0 mi West 17.3 mph 26.5 mph N/A   Overcast
11:55 AM 44.6 °F 35.5 °F 37.4 °F 76% 29.81 in 10.0 mi West 25.3 mph 36.8 mph N/A   Overcast
12:15 PM 44.6 °F 36.6 °F 37.4 °F 76% 29.81 in 10.0 mi WNW 19.6 mph 33.4 mph N/A   Overcast
12:35 PM 44.6 °F 36.9 °F 37.4 °F 76% 29.82 in 10.0 mi WNW 18.4 mph 29.9 mph N/A   Overcast
12:55 PM 44.6 °F 36.9 °F 37.4 °F 76% 29.83 in 10.0 mi West 18.4 mph 28.8 mph N/A   Overcast
1:15 PM 44.6 °F 37.2 °F 37.4 °F 76% 29.83 in 10.0 mi West 17.3 mph 29.9 mph N/A   Overcast
1:35 PM 44.6 °F 35.7 °F 35.6 °F 71% 29.83 in 10.0 mi WNW 24.2 mph 33.4 mph N/A   Overcast
1:55 PM 42.8 °F 33.8 °F 35.6 °F 76% 29.84 in 10.0 mi WNW 21.9 mph 36.8 mph N/A   Overcast
2:15 PM 42.8 °F 34.3 °F 35.6 °F 76% 29.84 in 10.0 mi WNW 19.6 mph 27.6 mph N/A   Overcast
2:35 PM 42.8 °F 34.3 °F 33.8 °F 70% 29.86 in 10.0 mi WNW 19.6 mph 24.2 mph N/A   Overcast
2:55 PM 44.6 °F 39.2 °F 33.8 °F 66% 29.86 in 10.0 mi West 10.4 mph 18.4 mph N/A   Overcast
3:15 PM 42.8 °F 35.8 °F 33.8 °F 70% 29.88 in 10.0 mi West 13.8 mph 20.7 mph N/A   Overcast
3:35 PM 44.6 °F 39.2 °F 33.8 °F 66% 29.89 in 10.0 mi West 10.4 mph - N/A   Overcast
3:55 PM 44.6 °F 37.2 °F 33.8 °F 66% 29.90 in 10.0 mi West 17.3 mph 20.7 mph N/A   Overcast
4:15 PM 42.8 °F 35.8 °F 33.8 °F 70% 29.91 in 10.0 mi West 13.8 mph 18.4 mph N/A   Overcast
4:35 PM 42.8 °F 34.5 °F 33.8 °F 70% 29.93 in 10.0 mi West 18.4 mph 24.2 mph N/A   Overcast
4:55 PM 42.8 °F 35.8 °F 33.8 °F 70% 29.94 in 10.0 mi West 13.8 mph 21.9 mph N/A   Overcast
5:15 PM 42.8 °F 34.8 °F 33.8 °F 70% 29.95 in 10.0 mi West 17.3 mph 24.2 mph N/A   Overcast
5:35 PM 42.8 °F 36.6 °F 32.0 °F 66% 29.97 in 10.0 mi West 11.5 mph 20.7 mph N/A   Overcast
5:55 PM 42.8 °F 35.1 °F 32.0 °F 66% 29.99 in 10.0 mi West 16.1 mph 25.3 mph N/A   Overcast
6:15 PM 42.8 °F 36.6 °F 32.0 °F 66% 30.00 in 10.0 mi West 11.5 mph 18.4 mph N/A   Overcast
6:35 PM 42.8 °F 34.3 °F 32.0 °F 66% 30.02 in 10.0 mi West 19.6 mph 24.2 mph N/A   Overcast
6:55 PM 41.0 °F 33.1 °F 32.0 °F 70% 30.02 in 10.0 mi WNW 15.0 mph 18.4 mph N/A   Overcast
7:15 PM 41.0 °F 32.8 °F 32.0 °F 70% 30.04 in 10.0 mi West 16.1 mph 21.9 mph N/A   Overcast
7:35 PM 41.0 °F 33.5 °F 32.0 °F 70% 30.04 in 10.0 mi WNW 13.8 mph 24.2 mph N/A   Mostly Cloudy
7:55 PM 41.0 °F 33.9 °F 32.0 °F 70% 30.05 in 10.0 mi WNW 12.7 mph 18.4 mph N/A   Mostly Cloudy
8:15 PM 41.0 °F 33.5 °F 32.0 °F 70% 30.05 in 10.0 mi WNW 13.8 mph 21.9 mph N/A   Overcast
8:35 PM 39.2 °F 31.2 °F 32.0 °F 75% 30.05 in 10.0 mi WNW 13.8 mph 20.7 mph N/A   Overcast
9:35 PM 37.4 °F 29.3 °F 32.0 °F 81% 30.05 in 10.0 mi WNW 12.7 mph - N/A   Mostly Cloudy
9:55 PM 37.4 °F 30.3 °F 32.0 °F 81% 30.05 in 10.0 mi West 10.4 mph - N/A   Mostly Cloudy
10:15 PM 37.4 °F 29.3 °F 32.0 °F 81% 30.04 in 10.0 mi West 12.7 mph - N/A   Mostly Cloudy
10:35 PM 37.4 °F 29.8 °F 32.0 °F 81% 30.03 in 10.0 mi West 11.5 mph - N/A   Clear
10:55 PM 37.4 °F 30.3 °F 32.0 °F 81% 30.04 in 10.0 mi West 10.4 mph - N/A   Clear
11:15 PM 35.6 °F 28.0 °F 32.0 °F 87% 30.03 in 10.0 mi West 10.4 mph - N/A   Clear
11:35 PM 35.6 °F 27.5 °F 32.0 °F 87% 30.02 in 10.0 mi West 11.5 mph - N/A   Clear
11:55 PM 33.8 °F 24.3 °F 32.0 °F 93% 30.02 in 10.0 mi West 13.8 mph - N/A   Clear